Location: Newark
(25.6108°S, 54.5803°W)
Time: 14:29:51
(UTC+00:00)

deb Explorer IX - Visible Passes

Search period start: 30 October 2020 00:00
Search period end: 09 November 2020 00:00
Orbit: 537 x 1106 km, 38.8° (Epoch: 30 October)

Date Brightness Start Highest point End Pass type
(mag) Time Alt. Az. Time Alt. Az. Time Alt. Az.
30 Oct ? 00:31:39 10° SW 00:33:22 18° SSW 00:33:22 18° SSW visible
30 Oct ? 22:21:03 10° SW 22:24:06 16° S 22:26:58 10° SE visible
31 Oct ? 00:08:27 10° SW 00:11:24 23° S 00:11:24 23° S visible
31 Oct ? 23:45:12 10° SW 23:49:00 25° SSE 23:49:26 24° SSE visible
01 Nov ? 23:21:55 10° SW 23:25:53 26° SSE 23:27:28 21° SE visible
02 Nov ? 01:08:39 10° WSW 01:08:46 11° WSW 01:08:46 11° WSW visible
02 Nov ? 22:58:38 10° SW 23:02:46 27° SSE 23:05:32 15° ESE visible
03 Nov ? 00:45:27 10° WSW 00:46:49 19° WSW 00:46:49 19° WSW visible
03 Nov ? 22:35:18 10° SW 22:39:39 28° SSE 22:43:30 10° ESE visible
04 Nov ? 00:22:14 10° WSW 00:24:54 33° WSW 00:24:54 33° WSW visible
04 Nov ? 23:58:59 10° WSW 00:03:01 59° W 00:03:01 59° W visible
05 Nov ? 23:35:43 10° WSW 23:40:35 70° NW 23:41:10 61° NNE visible
06 Nov ? 23:12:25 10° WSW 23:17:27 70° NW 23:19:21 33° NE visible
07 Nov ? 22:49:06 10° WSW 22:54:19 69° NW 22:57:35 18° NE visible
08 Nov ? 22:25:46 10° WSW 22:31:10 69° NW 22:35:43 10° NE visible
